Ana Sayfa
METAR-TAF:

METAR-TAF

Havaalanları :

Front Royal, Virginia, Amerika Birleşik Devletleri

Enlem: 38-55-03N, Boylam: 078-15-12W, yükseklik: 216 m

Güncel hava durumu gözlemi

Rapor saat 20:55 UTC de 11 dakika önce yapıldı.
Rüzgar batı/güneybatıdan 6 kt
Sıcaklık 15°C
Nem 14%
Basınç 1018 hPa
Görüş mesafesi: 16.1 km
12000 ft yükseklikte parçalı çok bulutlu

METAR: KFRR 232055Z AUTO 25006KT 10SM BKN120 15/M12 A3005 RMK AO1

Saat: 16:06 (21:06 UTC)


TAF: eksik

4.000'den fazla havaalanı için hava durumu gözlemleri ve tahminleri (METAR ve TAF raporları).

Kullanılabilir istasyonlar harita üzerinde sarı ve kırmızı noktalarla gösterilir.

İstasyonun adını görmek için fareyi noktanın üzerinde gezdirin.

Sonrasında hava gözlem ve tahminlerini görmek için tıklayın.

Haritayı değiştirmek için: yaklaştırmak için siyah artı işaretli yeşil düğmeye ve uzaklaştırmak için de eksi işaretli düğmeye hızla tıklayın; bitişik haritalar için yeşil okları kullanın.


METAR-TAF: